Powrót do katalogu

STARLINK-37718

AktywnyŁącznośćVLEO
NORAD 69242·PAYLOAD·🇺🇸 United States

Wystrzelony May 29, 2026 z Cape Canaveral Space Force Station

Loading…

Następne Przeloty (najbliższe 24 godziny)

TLE

ŚwieżeSource: CelesTrak SupGP

Epoka: Sep 14, 2026, 16:13 UTC

1 69242C 26117E   26257.67618056  .00073409  00000+0  21689-2 0  2578
2 69242  53.1565 180.9724 0001244 104.9507 227.0636 15.34353898    14

Śledź STARLINK-37718 w czasie rzeczywistym z AllMySat

Download on the App Store